• In Belarus
  • List of Countries
  • For 7 days
  • Water Temperature
  • Weather Map
  • Weather Widgets
  • user-avatar
    Login

    Hourly Weather Lezhe

    Today, 20 November, Wednesday

    Time Temperature Precipitation Wind Pressure Humidity
    00:00 +12°C° 0.1 mm 3 mps 736 mmHg 82%
    01:00 +13°C° 0 mm 2 mps 735 mmHg 80%
    02:00 +12°C° 3.3 mm 3 mps 735 mmHg 85%
    03:00 +11°C° 3.3 mm 4 mps 734 mmHg 90%
    04:00 +10°C° 3.3 mm 5 mps 734 mmHg 95%
    05:00 +11°C° 1.9 mm 4 mps 734 mmHg 93%
    06:00 +11°C° 1.9 mm 4 mps 734 mmHg 91%
    07:00 +11°C° 1.9 mm 3 mps 734 mmHg 89%
    08:00 +12°C° 0.2 mm 3 mps 735 mmHg 84%
    09:00 +13°C° 0.2 mm 3 mps 735 mmHg 79%
    10:00 +14°C° 0.2 mm 3 mps 736 mmHg 74%
    11:00 +14°C° 0.5 mm 4 mps 736 mmHg 72%
    12:00 +15°C° 0.5 mm 4 mps 736 mmHg 70%
    13:00 +15°C° 0.5 mm 4 mps 736 mmHg 69%
    14:00 +14°C° 0.5 mm 4 mps 736 mmHg 73%
    15:00 +13°C° 0.5 mm 3 mps 736 mmHg 78%
    16:00 +13°C° 0.5 mm 2 mps 736 mmHg 82%
    17:00 +13°C° 0.4 mm 2 mps 736 mmHg 84%
    18:00 +12°C° 0.4 mm 2 mps 737 mmHg 85%
    19:00 +12°C° 0.4 mm 2 mps 737 mmHg 87%
    20:00 +12°C° 0.2 mm 2 mps 737 mmHg 86%
    21:00 +12°C° 0.2 mm 2 mps 737 mmHg 86%
    22:00 +12°C° 0.2 mm 2 mps 738 mmHg 85%
    23:00 +10°C° 0.2 mm 2 mps 737 mmHg 85%

    Tomorrow, 21 November, Thursday

    Time Temperature Precipitation Wind Pressure Humidity
    00:00 +10°C° 0.2 mm 2 mps 737 mmHg 84%
    01:00 +11°C° 0.2 mm 1 mps 737 mmHg 83%
    02:00 +11°C° 0.1 mm 1 mps 737 mmHg 82%
    03:00 +10°C° 0.1 mm 2 mps 737 mmHg 81%
    04:00 +10°C° 0.1 mm 2 mps 737 mmHg 80%
    05:00 +10°C° 0 mm 2 mps 737 mmHg 80%
    06:00 +9°C° 0 mm 2 mps 737 mmHg 79%
    07:00 +9°C° 0 mm 2 mps 737 mmHg 78%
    08:00 +12°C° 0 mm 2 mps 737 mmHg 74%
    09:00 +13°C° 0 mm 1 mps 737 mmHg 70%
    10:00 +15°C° 0 mm 1 mps 737 mmHg 65%
    11:00 +15°C° 0 mm 1 mps 736 mmHg 64%
    12:00 +15°C° 0 mm 1 mps 736 mmHg 63%
    13:00 +15°C° 0 mm 0 mps 736 mmHg 61%
    14:00 +14°C° 0 mm 0 mps 736 mmHg 67%
    15:00 +13°C° 0 mm 0 mps 736 mmHg 72%
    16:00 +12°C° 0 mm 0 mps 735 mmHg 77%
    17:00 +12°C° 0 mm 0 mps 736 mmHg 78%
    18:00 +12°C° 0 mm 1 mps 736 mmHg 79%
    19:00 +12°C° 0 mm 1 mps 736 mmHg 79%
    20:00 +12°C° 0 mm 1 mps 736 mmHg 79%
    21:00 +11°C° 0 mm 1 mps 736 mmHg 78%
    22:00 +11°C° 0 mm 1 mps 736 mmHg 78%
    23:00 +11°C° 0 mm 1 mps 736 mmHg 77%

    Day after tomorrow, 22 November, Friday

    Time Temperature Precipitation Wind Pressure Humidity
    00:00 +11°C° 0 mm 1 mps 736 mmHg 77%
    01:00 +11°C° 0 mm 1 mps 736 mmHg 76%
    02:00 +10°C° 0 mm 1 mps 736 mmHg 76%
    03:00 +10°C° 0 mm 1 mps 736 mmHg 75%
    04:00 +10°C° 0 mm 1 mps 736 mmHg 75%
    05:00 +10°C° 0 mm 1 mps 736 mmHg 74%
    06:00 +10°C° 0 mm 1 mps 736 mmHg 74%
    07:00 +10°C° 0 mm 1 mps 736 mmHg 74%
    08:00 +11°C° 0 mm 1 mps 736 mmHg 70%
    09:00 +13°C° 0 mm 1 mps 737 mmHg 66%
    10:00 +14°C° 0 mm 1 mps 737 mmHg 63%
    11:00 +15°C° 0 mm 1 mps 737 mmHg 61%
    12:00 +16°C° 0 mm 1 mps 736 mmHg 59%
    13:00 +15°C° 0 mm 0 mps 736 mmHg 57%
    14:00 +14°C° 0 mm 0 mps 736 mmHg 63%
    15:00 +13°C° 0 mm 0 mps 736 mmHg 69%
    16:00 +12°C° 0 mm 0 mps 736 mmHg 74%
    17:00 +11°C° 0 mm 0 mps 736 mmHg 76%
    18:00 +12°C° 0 mm 1 mps 736 mmHg 77%
    19:00 +11°C° 0 mm 1 mps 737 mmHg 79%
    20:00 +11°C° 0 mm 1 mps 737 mmHg 79%
    21:00 +11°C° 0 mm 1 mps 737 mmHg 79%
    22:00 +11°C° 0 mm 1 mps 737 mmHg 80%
    23:00 +10°C° 0 mm 1 mps 737 mmHg 80%

    23 November, Saturday

    Time Temperature Precipitation Wind Pressure Humidity
    00:00 +10°C° 0 mm 1 mps 737 mmHg 80%
    01:00 +10°C° 0 mm 1 mps 738 mmHg 80%
    02:00 +10°C° 0 mm 1 mps 737 mmHg 80%
    03:00 +10°C° 0 mm 1 mps 737 mmHg 80%
    04:00 +10°C° 0 mm 1 mps 737 mmHg 80%
    05:00 +10°C° 0 mm 1 mps 737 mmHg 81%
    06:00 +10°C° 0 mm 1 mps 737 mmHg 81%
    07:00 +9°C° 0 mm 2 mps 737 mmHg 81%
    08:00 +12°C° 0 mm 1 mps 737 mmHg 77%
    09:00 +13°C° 0 mm 1 mps 737 mmHg 74%
    10:00 +14°C° 0 mm 1 mps 737 mmHg 70%
    11:00 +15°C° 0 mm 1 mps 737 mmHg 68%
    12:00 +15°C° 0 mm 1 mps 737 mmHg 66%
    13:00 +16°C° 0 mm 1 mps 736 mmHg 65%
    14:00 +15°C° 0 mm 1 mps 736 mmHg 69%
    15:00 +14°C° 0 mm 1 mps 736 mmHg 74%
    16:00 +13°C° 0 mm 1 mps 736 mmHg 78%
    17:00 +13°C° 0 mm 1 mps 736 mmHg 78%
    18:00 +12°C° 0 mm 2 mps 736 mmHg 78%
    19:00 +12°C° 0 mm 2 mps 737 mmHg 78%
    20:00 +12°C° 0 mm 2 mps 737 mmHg 78%
    21:00 +10°C° 0 mm 2 mps 737 mmHg 78%
    22:00 +10°C° 0 mm 2 mps 737 mmHg 77%
    23:00 +10°C° 0 mm 2 mps 737 mmHg 77%

    24 November, Sunday

    Time Temperature Precipitation Wind Pressure Humidity
    00:00 +10°C° 0 mm 2 mps 737 mmHg 77%
    01:00 +10°C° 0 mm 2 mps 737 mmHg 78%
    02:00 +10°C° 0 mm 2 mps 737 mmHg 77%
    03:00 +10°C° 0 mm 2 mps 737 mmHg 77%
    04:00 +10°C° 0 mm 2 mps 736 mmHg 77%
    05:00 +9°C° 0 mm 2 mps 736 mmHg 77%
    06:00 +9°C° 0 mm 2 mps 736 mmHg 78%
    07:00 +9°C° 0 mm 2 mps 736 mmHg 79%
    08:00 +12°C° 0 mm 2 mps 736 mmHg 75%
    09:00 +13°C° 0 mm 2 mps 736 mmHg 71%
    10:00 +15°C° 0 mm 2 mps 737 mmHg 68%
    11:00 +16°C° 0 mm 2 mps 736 mmHg 66%
    12:00 +16°C° 0 mm 2 mps 736 mmHg 64%
    13:00 +17°C° 0 mm 2 mps 735 mmHg 61%
    14:00 +16°C° 0 mm 2 mps 735 mmHg 66%
    15:00 +14°C° 0 mm 3 mps 735 mmHg 70%
    16:00 +13°C° 0 mm 3 mps 734 mmHg 74%
    17:00 +12°C° 0 mm 3 mps 734 mmHg 75%
    18:00 +12°C° 0 mm 3 mps 734 mmHg 76%
    19:00 +11°C° 0 mm 3 mps 734 mmHg 77%
    20:00 +11°C° 0 mm 4 mps 734 mmHg 78%
    21:00 +11°C° 0 mm 4 mps 734 mmHg 78%
    22:00 +11°C° 0 mm 4 mps 734 mmHg 79%
    23:00 +11°C° 0 mm 4 mps 733 mmHg 79%

    25 November, Monday

    Time Temperature Precipitation Wind Pressure Humidity
    00:00 +11°C° 0 mm 4 mps 733 mmHg 80%
    01:00 +10°C° 0 mm 4 mps 733 mmHg 80%
    02:00 +10°C° 0 mm 4 mps 733 mmHg 80%
    03:00 +10°C° 0 mm 4 mps 732 mmHg 80%
    04:00 +9°C° 0 mm 5 mps 732 mmHg 80%
    05:00 +10°C° 0 mm 4 mps 732 mmHg 80%
    06:00 +10°C° 0 mm 4 mps 732 mmHg 80%
    07:00 +10°C° 0 mm 4 mps 732 mmHg 80%
    08:00 +11°C° 0 mm 4 mps 733 mmHg 77%
    09:00 +12°C° 0 mm 4 mps 733 mmHg 74%
    10:00 +13°C° 0 mm 4 mps 733 mmHg 72%
    11:00 +14°C° 0 mm 4 mps 733 mmHg 70%
    12:00 +14°C° 0 mm 4 mps 732 mmHg 69%
    13:00 +16°C° 0 mm 3 mps 732 mmHg 67%
    14:00 +14°C° 0 mm 3 mps 732 mmHg 70%
    15:00 +13°C° 0 mm 3 mps 732 mmHg 74%
    16:00 +12°C° 0 mm 3 mps 732 mmHg 77%
    17:00 +12°C° 0 mm 3 mps 732 mmHg 78%
    18:00 +11°C° 0 mm 3 mps 733 mmHg 78%
    19:00 +11°C° 0 mm 3 mps 733 mmHg 79%
    20:00 +10°C° 0 mm 4 mps 733 mmHg 80%
    21:00 +10°C° 0 mm 4 mps 733 mmHg 81%
    22:00 +10°C° 0 mm 4 mps 733 mmHg 81%
    23:00 +10°C° 0 mm 4 mps 733 mmHg 81%
    Show more